User: anonymous   Login
Location: Parc des �les de St-Timoth�e
(45.2924°N, 74.0481°W)
Time: 10:46:40
(UTC-04:00)
Language:

Cosmos 2173 Rocket - Orbit

View from above orbital plane
View from above orbital plane
View from above satellite
View from above satellite

Ground track
Ground track

The orbit data is extracted from the following two-line orbital elements,

1 21797U 91081B   15239.41147444  .00000002  00000-0 -13710-4 0  9993
2 21797 082.9554 192.1223 0038947 135.1825 339.0218 13.77338966193571
Epoch (UTC): 27 August 2015 09:52:31
Eccentricity: 0.0038947
inclination: 82.9554°
perigee height: 945 km
apogee height: 1002 km
right ascension of ascending node: 192.1223°
argument of perigee: 135.1825°
revolutions per day: 13.77338966
mean anomaly at epoch: 339.0218°
orbit number at epoch: 19357

The dashed part of the orbit path shows where the satellite is in the earth's shadow,  

DLR